Temperature
5 5 5 5 5 5 5 6 6 7 7 8 8 7 6 6 5 5 4 4 4 4 4 4 4 4 4 4 4 4 4 4 4 4 4 4 4 3 3 3 3 4 4 4
3 4 4 4 5 5 5 5 6 6 6 7 6 5 5 5 4 4 4 3 3 4 4 3 3 4 4 4 4 4 4 4 4 4 3 3 3 3 3 3 3 3 3 3
3 4 4 4 5 4 4 5 5 5 6 5 5 4 4 4 4 3 3 3 3 3 3 3 3 3 4 4 4 4 4 4 3 3 3 3 3 3 3 3 3 3 3 3
3 3 3 5 4 4 4 4 4 4 4 4 4 4 3 3 3 3 3 3 3 3 3 3 3 3 3 3 3 3 3 3 3 3 3 3 3 3 3 3 2 2 2 2
2 3 4 4 3 3 3 3 3 3 3 3 2 2 3 3 2 2 2 2 2 3 3 3 3 3 3 3 3 3 3 3 3 2 2 2 2 2 2 2 2 2 2 2
2 2 3 4 3 2 3 3 3 2 3 2 2 3 4 2 2 2 2 2 2 2 3 3 3 3 3 2 2 2 2 2 2 2 2 2 2 2 2 2 1 1 1 1
1 2 2 2 1 2 2 3 2 1 1 1 2 2 1 1 1 1 1 1 2 2 2 2 2 2 2 2 2 2 2 2 2 2 1 1 1 1 1 1 1 1 1 1
1 1 1 1 1 1 1 1 0 1 1 0 0 0 0 0 0 0 1 1 1 1 1 1 1 1 1 1 2 1 1 1 1 1 1 1 1 1 1 1 1 0 0 0
1 1 1 0 -0 -0 -0 -0 -0 -0 -0 -1 -1 -1 -1 -1 -0 -0 -0 0 0 1 1 1 1 1 1 1 1 1 1 1 1 0 0 0 0 -0 -0 0 -0 -0 -0 -0
-1 0 -0 -1 -1 -1 -1 -2 -1 -1 -1 -1 -2 -1 -1 -1 -1 -1 -1 -0 -0 -0 0 0 0 0 0 0 0 0 0 0 0 -0 -0 -0 -0 -0 -1 -1 -1 -1 -1 -1
-1 -1 -1 -2 -2 -2 -2 -2 -2 -2 -2 -2 -2 -2 -2 -2 -2 -1 -1 -1 -1 -1 -1 -1 -1 -1 -0 -0 -0 -0 -0 -0 -1 -1 -1 -1 -1 -1 -1 -1 -1 -1 -1 -1
-1 -1 -2 -2 -3 -3 -3 -3 -3 -3 -2 -2 -2 -2 -2 -2 -2 -2 -2 -2 -1 -1 -1 -1 -1 -1 -1 -1 -1 -1 -1 -1 -1 -1 -1 -1 -1 -1 -1 -1 -1 -1 -1 -2
-3 -3 -4 -4 -4 -4 -4 -4 -3 -3 -3 -3 -3 -3 -2 -2 -2 -2 -2 -2 -2 -2 -2 -2 -2 -2 -2 -1 -1 -1 -1 -2 -2 -2 -2 -2 -2 -2 -2 -2 -2 -2 -2 -2
-4 -4 -5 -5 -5 -4 -4 -4 -4 -4 -4 -4 -3 -3 -3 -3 -3 -3 -3 -3 -2 -2 -2 -2 -2 -2 -2 -2 -2 -2 -2 -2 -2 -2 -2 -2 -3 -3 -3 -3 -3 -3 -3 -3
-5 -5 -5 -5 -5 -5 -5 -5 -5 -4 -4 -4 -4 -4 -3 -3 -3 -4 -3 -3 -3 -3 -3 -3 -3 -3 -3 -3 -3 -3 -3 -3 -3 -3 -3 -3 -3 -3 -3 -4 -4 -4 -4 -4
-6 -5 -5 -5 -5 -5 -5 -5 -5 -5 -5 -5 -5 -4 -4 -4 -4 -4 -4 -4 -4 -3 -3 -3 -4 -4 -4 -3 -3 -3 -3 -3 -3 -4 -4 -4 -4 -4 -4 -4 -4 -5 -5 -5
-6 -6 -6 -6 -6 -6 -6 -6 -6 -5 -5 -5 -5 -5 -5 -5 -5 -5 -5 -4 -4 -4 -4 -4 -4 -4 -4 -4 -4 -4 -4 -4 -4 -4 -4 -5 -5 -5 -5 -5 -5 -5 -5 -5
-6 -6 -6 -6 -6 -6 -6 -6 -6 -6 -6 -6 -6 -6 -6 -6 -5 -5 -5 -5 -5 -5 -5 -5 -5 -5 -5 -5 -4 -5 -5 -5 -5 -5 -5 -5 -5 -6 -6 -6 -6 -6 -6 -6
-7 -7 -7 -6 -7 -7 -7 -7 -7 -6 -7 -7 -6 -6 -6 -6 -6 -6 -6 -6 -6 -6 -6 -6 -5 -5 -5 -5 -5 -5 -5 -6 -6 -6 -6 -6 -6 -6 -6 -6 -6 -6 -6 -6
-7 -7 -7 -7 -7 -7 -7 -7 -7 -7 -7 -7 -7 -7 -7 -7 -7 -7 -7 -7 -7 -7 -7 -6 -6 -6 -6 -6 -6 -6 -6 -6 -6 -6 -6 -7 -7 -7 -7 -7 -7 -7 -7 -7
-8 -8 -7 -7 -7 -7 -7 -7 -8 -8 -8 -8 -8 -8 -8 -8 -7 -7 -7 -7 -7 -7 -7 -7 -7 -7 -7 -7 -7 -7 -7 -7 -7 -7 -7 -7 -7 -7 -7 -7 -7 -7 -7 -7
-8 -8 -8 -8 -8 -8 -8 -8 -8 -8 -8 -8 -8 -8 -8 -8 -8 -8 -8 -8 -8 -8 -8 -7 -7 -7 -7 -8 -7 -7 -7 -7 -7 -7 -8 -8 -8 -8 -8 -8 -8 -8 -7 -7
-9 -9 -9 -9 -9 -9 -9 -9 -9 -9 -9 -9 -9 -9 -9 -9 -9 -9 -9 -9 -9 -8 -8 -8 -8 -8 -8 -8 -8 -8 -8 -8 -8 -8 -8 -8 -8 -8 -8 -8 -8 -8 -8 -8
-9 -9 -9 -9 -9 -9 -9 -9 -9 -9 -10 -10 -10 -10 -10 -10 -9 -9 -9 -9 -9 -9 -9 -9 -9 -9 -9 -9 -9 -9 -9 -9 -9 -9 -9 -9 -9 -9 -8 -8 -8 -8 -8 -8
-10 -10 -10 -10 -10 -10 -10 -10 -10 -10 -10 -10 -10 -10 -10 -10 -10 -10 -10 -10 -10 -10 -9 -9 -9 -9 -9 -9 -9 -9 -9 -9 -9 -9 -9 -9 -9 -9 -9 -9 -9 -9 -9 -9
-10 -10 -10 -10 -10 -11 -11 -11 -11 -11 -11 -10 -11 -11 -11 -11 -11 -10 -10 -10 -10 -10 -10 -10 -10 -10 -10 -10 -10 -10 -10 -10 -10 -10 -10 -10 -9 -9 -9 -9 -9 -9 -9 -9
-11 -11 -11 -11 -11 -11 -11 -11 -11 -11 -11 -11 -11 -11 -11 -11 -11 -11 -11 -11 -11 -11 -11 -11 -11 -10 -10 -10 -10 -10 -10 -10 -10 -10 -10 -10 -10 -10 -10 -10 -9 -9 -9 -9
Wind_Speed
14 13 11 14 14 13 14 14 14 16 15 15 11 10 10 9 7 6 5 5 5 6 5 5 4 4 3 3 4 4 4 4 4 4 3 3 3 3 3 3 3 3 3 3
11 11 12 15 16 15 16 16 17 18 18 12 9 8 8 8 7 7 7 7 7 6 6 6 5 5 4 4 4 4 4 4 3 3 3 3 3 3 3 2 2 2 3 3
8 7 8 12 10 11 10 9 10 13 12 8 8 9 9 8 8 7 7 7 7 7 6 6 6 5 5 4 4 4 4 4 3 3 3 3 2 2 2 2 2 2 2 2
6 5 10 5 2 6 8 8 8 9 9 8 9 10 9 7 7 8 8 7 7 6 6 5 5 4 4 4 4 4 4 3 3 3 3 2 2 2 2 1 1 1 1 1
5 8 10 6 3 3 7 8 5 8 10 10 9 8 6 5 7 9 9 8 7 6 5 4 4 3 3 3 3 4 4 4 3 3 3 3 2 2 1 1 1 1 1 1
6 7 7 6 6 6 5 7 4 7 10 10 7 7 7 8 9 10 9 7 5 5 4 3 2 2 3 3 4 4 4 3 3 3 3 3 2 1 1 1 1 1 0 1
8 8 6 6 7 3 4 6 8 8 9 8 7 8 10 10 10 9 7 6 4 3 2 2 1 2 3 3 3 3 3 3 3 3 3 2 2 1 1 1 1 1 1 0
5 7 6 5 3 2 7 10 9 9 8 8 9 9 10 9 9 8 6 5 3 2 2 1 1 2 2 2 2 2 3 3 3 3 2 2 2 2 2 2 2 1 1 0
5 6 6 3 4 6 8 9 9 9 9 8 9 9 9 9 8 7 6 4 3 2 1 2 1 1 2 1 1 2 3 3 3 2 2 2 2 2 2 1 1 1 1 0
7 8 9 9 8 9 10 10 10 9 9 8 9 9 9 7 6 6 5 4 3 2 2 2 2 1 1 1 2 3 3 3 3 3 2 2 2 2 1 1 1 1 0 0
10 10 10 9 10 11 11 10 10 10 9 8 8 8 7 6 6 5 4 3 2 1 1 2 2 2 2 2 2 3 3 3 2 2 2 2 2 2 1 1 0 0 0 0
9 9 9 11 12 11 11 11 10 10 9 8 6 6 6 5 5 4 3 2 2 2 2 2 2 2 2 2 2 3 3 2 2 2 2 2 2 3 4 3 4 3 2 1
8 9 9 11 11 11 10 11 10 9 8 7 6 5 5 4 3 3 2 2 2 2 2 2 2 3 3 2 3 3 3 2 2 2 2 2 2 1 2 4 5 4 4 3
8 8 8 9 10 11 11 10 9 8 7 6 5 4 3 3 2 2 2 2 3 3 3 3 3 3 3 3 3 3 3 3 2 2 1 1 1 1 1 1 2 3 3 4
9 8 8 9 9 9 9 8 7 7 7 6 5 4 3 2 2 2 3 3 3 4 4 4 4 3 3 3 3 3 3 2 2 2 1 1 1 1 1 1 1 2 2 3
11 9 8 8 9 9 8 7 7 7 6 5 5 4 3 2 3 3 4 4 4 4 4 4 4 4 3 3 3 3 3 4 2 2 1 1 1 1 1 1 1 2 2 2
8 8 8 9 9 8 7 7 6 6 5 4 4 4 4 4 4 4 5 4 4 4 4 4 4 4 4 3 3 2 2 2 3 2 2 2 1 1 1 1 2 2 2 3
7 7 6 6 7 7 7 6 5 5 4 4 3 4 4 3 3 4 4 4 5 5 5 5 4 4 4 4 3 2 2 2 2 2 2 2 2 2 2 2 2 2 2 3
8 7 7 6 5 5 5 5 5 5 4 4 3 3 3 3 3 3 4 4 4 4 4 5 5 5 4 4 4 2 2 2 2 2 2 2 2 2 2 2 2 2 3 3
8 8 7 7 7 5 5 5 5 5 4 4 3 3 4 4 4 4 4 4 4 3 4 4 4 4 4 4 4 2 2 2 2 2 2 2 2 2 2 2 2 3 3 3
9 8 8 8 8 7 7 6 5 5 5 4 4 4 4 4 4 4 3 3 4 5 5 5 4 3 3 3 3 2 2 2 2 2 2 2 2 2 2 2 2 3 3 3
8 7 8 7 7 7 7 6 6 6 5 5 5 4 4 4 4 4 4 3 4 6 5 3 3 4 4 4 2 2 2 2 2 2 2 2 2 2 3 3 3 3 3 3
6 6 7 7 7 6 7 6 6 6 5 5 5 4 4 3 3 3 3 4 4 5 4 3 4 5 5 3 2 2 2 2 2 2 2 3 3 3 3 3 3 3 3 4
7 7 7 6 6 6 7 7 6 5 5 5 4 4 3 3 3 3 3 5 6 6 4 4 6 6 5 3 2 2 2 2 3 3 3 3 3 3 3 4 4 4 4 5
6 6 6 7 6 6 6 6 6 6 5 4 5 5 4 3 2 3 3 4 6 5 4 5 6 6 4 3 3 3 3 3 3 3 3 3 3 4 4 4 4 4 4 4
5 5 5 5 5 5 5 5 4 5 5 5 5 4 4 3 3 3 3 4 5 5 4 4 4 4 3 3 3 3 3 4 4 4 4 4 4 4 4 4 5 5 4 4
5 5 4 4 5 5 5 4 4 5 5 5 5 5 5 4 4 4 4 4 4 4 4 4 4 4 4 4 4 4 4 4 4 4 4 4 4 4 4 5 5 5 5 5
Wind_Direction
265 267 263 261 259 247 239 244 253 264 269 280 295 301 299 297 295 296 293 294 288 286 282 269 255 245 243 244 231 216 208 210 210 202 193 189 192 197 200 204 213 216 211 214
271 261 260 262 259 252 248 249 254 264 271 284 296 304 298 297 297 293 292 293 290 288 285 272 255 243 238 239 232 216 209 206 199 188 180 182 186 190 196 197 203 207 210 217
271 276 272 259 250 240 241 245 250 258 273 296 294 293 295 295 293 292 290 288 286 284 279 272 262 244 234 228 219 214 209 196 185 175 175 182 184 187 193 196 193 207 223 228
268 267 247 263 310 250 239 251 256 266 277 284 290 298 293 286 291 297 293 287 285 283 281 278 268 246 234 219 212 208 198 190 184 176 177 181 183 191 197 196 193 210 230 253
246 259 267 278 305 269 250 264 287 280 290 298 309 306 285 300 309 304 298 290 283 281 282 278 260 233 216 206 206 200 191 191 187 183 179 182 187 192 191 193 196 219 229 238
244 259 261 299 331 315 262 257 314 303 298 301 307 295 300 322 317 313 308 300 292 289 284 271 249 206 198 199 199 200 197 192 183 181 181 182 185 183 182 187 192 187 227 250
249 255 265 327 339 336 249 295 321 304 296 291 285 286 305 314 314 314 313 309 304 295 287 279 237 191 189 190 203 207 190 176 173 175 177 176 168 160 150 144 142 142 156 210
253 255 268 345 352 281 296 315 310 307 303 298 296 301 306 312 314 318 321 323 322 319 325 326 195 175 179 192 201 183 168 163 162 159 149 146 145 143 139 135 136 138 129 60
247 261 308 309 289 297 312 309 309 311 310 306 304 308 311 312 314 318 323 325 327 335 1 15 36 140 170 191 173 159 150 146 139 128 122 128 132 133 131 135 141 147 152 107
271 277 301 303 306 316 316 310 310 310 310 308 304 306 309 311 314 319 320 324 335 360 32 28 29 61 100 117 128 135 133 125 119 117 106 102 111 124 140 154 155 157 164 297
274 288 305 302 308 313 316 317 317 317 312 305 304 303 305 306 311 314 322 334 348 9 25 25 25 40 49 84 116 125 117 108 102 102 103 92 79 64 67 40 37 166 213 254
284 299 297 300 310 315 315 315 315 314 313 310 305 301 307 309 315 318 333 352 8 17 25 26 36 51 41 64 100 114 106 97 97 97 96 91 82 61 48 41 33 27 18 355
291 305 301 301 311 318 317 316 317 313 310 309 309 304 305 311 325 343 354 4 13 18 26 35 51 58 47 58 83 93 94 88 87 85 86 85 86 83 58 45 45 38 33 27
305 309 306 310 310 316 318 318 322 326 323 318 313 314 319 332 348 359 359 2 17 30 39 49 58 51 44 56 68 72 73 68 66 70 75 76 76 73 73 59 32 23 25 30
314 309 299 306 314 320 327 333 336 336 337 338 333 326 330 349 1 9 12 23 43 55 53 54 56 45 39 54 65 63 60 55 53 54 55 53 50 44 44 35 20 13 17 21
313 315 316 319 321 323 332 334 327 325 332 339 345 346 356 23 31 29 28 37 53 51 46 48 45 32 33 48 60 60 59 51 44 45 45 41 37 34 25 16 9 3 357 353
319 322 322 322 320 320 321 319 316 317 324 337 346 357 16 34 37 35 33 37 49 47 41 41 37 30 32 41 49 49 48 46 38 36 36 28 21 12 358 351 345 339 337 344
308 304 306 308 310 315 324 331 333 333 333 341 357 10 22 31 27 24 29 37 46 45 38 34 33 32 34 34 37 36 36 30 26 27 19 13 3 353 344 336 332 329 331 337
337 335 335 334 332 330 330 334 337 342 348 355 5 8 10 17 21 28 36 41 41 35 21 21 27 30 29 25 23 32 33 28 18 8 2 355 348 341 333 327 326 325 323 322
351 354 356 358 1 359 353 350 353 357 358 3 10 17 20 24 32 37 41 40 27 15 7 9 17 19 17 15 13 18 17 9 357 347 342 335 330 326 323 320 317 314 313 313
354 358 4 6 5 7 9 10 13 11 11 17 26 29 26 25 30 33 33 26 14 12 9 10 10 6 2 359 4 5 2 355 346 335 329 325 322 318 315 311 308 307 306 307
353 356 0 3 5 7 9 13 15 14 15 18 23 26 28 24 22 25 25 12 1 359 1 3 2 357 352 351 358 360 353 345 335 327 321 315 310 307 304 303 302 303 301 298
352 354 357 360 0 360 5 11 12 12 12 11 13 15 17 9 6 9 3 0 354 352 354 355 352 351 350 354 351 344 337 330 323 318 313 308 305 301 298 297 297 295 294 293
352 354 353 354 360 5 6 4 5 7 6 5 8 9 6 3 4 6 347 340 346 345 347 347 351 351 352 351 341 332 325 319 314 309 304 301 298 295 294 293 290 289 287 287
348 349 353 356 359 355 350 350 355 360 2 4 4 3 359 355 344 337 339 340 342 344 341 343 347 347 347 336 331 324 317 309 305 302 297 296 294 292 289 288 288 286 284 282
345 344 344 344 343 340 340 343 347 347 348 349 350 350 350 348 342 336 335 337 338 339 336 329 330 333 328 322 319 315 310 307 306 303 297 293 291 288 286 287 287 284 284 283
343 343 342 346 350 348 343 341 340 339 339 338 334 335 338 338 337 337 335 332 333 331 326 322 321 319 316 314 311 308 303 299 296 294 292 290 289 287 286 285 284 284 283 282
Height
1483 1481 1482 1480 1478 1479 1480 1474 1471 1460 1459 1456 1457 1459 1458 1458 1456 1455 1454 1453 1453 1452 1451 1450 1449 1449 1448 1448 1448 1448 1448 1448 1448 1448 1449 1449 1450 1451 1452 1453 1454 1455 1455 1456
1484 1479 1478 1476 1473 1472 1471 1469 1466 1462 1458 1457 1458 1459 1457 1455 1454 1453 1452 1451 1450 1449 1447 1446 1445 1445 1445 1445 1445 1445 1445 1445 1445 1445 1446 1447 1447 1448 1449 1450 1451 1452 1452 1453
1479 1476 1475 1469 1466 1466 1465 1463 1463 1459 1457 1457 1457 1456 1455 1454 1452 1451 1449 1448 1446 1445 1444 1443 1442 1441 1441 1441 1442 1442 1442 1442 1442 1443 1443 1444 1445 1446 1447 1447 1448 1448 1449 1449
1480 1478 1476 1461 1464 1463 1462 1461 1462 1459 1457 1457 1456 1454 1453 1451 1450 1448 1447 1445 1443 1441 1440 1439 1439 1438 1438 1438 1438 1439 1439 1439 1440 1440 1441 1442 1443 1443 1444 1444 1445 1445 1446 1446
1479 1470 1460 1460 1464 1464 1462 1458 1459 1458 1456 1455 1454 1451 1448 1448 1446 1445 1443 1442 1440 1438 1437 1436 1435 1435 1435 1435 1435 1436 1436 1437 1437 1438 1439 1439 1440 1441 1441 1442 1442 1443 1443 1444
1476 1471 1464 1460 1462 1461 1460 1454 1456 1456 1454 1452 1451 1448 1445 1445 1443 1441 1439 1437 1436 1435 1434 1433 1432 1432 1432 1432 1432 1433 1433 1434 1435 1436 1437 1437 1438 1439 1439 1440 1440 1441 1441 1442
1473 1468 1462 1464 1463 1461 1460 1455 1456 1454 1453 1451 1450 1448 1446 1443 1440 1438 1436 1434 1433 1432 1431 1430 1430 1430 1429 1430 1430 1431 1431 1432 1433 1434 1435 1435 1436 1437 1437 1438 1438 1439 1439 1440
1473 1470 1466 1465 1463 1463 1460 1458 1455 1453 1451 1449 1447 1445 1442 1440 1438 1435 1433 1431 1430 1429 1428 1428 1428 1428 1427 1428 1428 1429 1429 1430 1431 1432 1433 1433 1434 1435 1435 1436 1436 1437 1437 1437
1471 1468 1465 1464 1463 1462 1460 1457 1454 1451 1448 1446 1444 1442 1439 1437 1435 1433 1431 1430 1429 1428 1427 1427 1426 1426 1426 1427 1427 1427 1428 1428 1429 1430 1431 1432 1432 1433 1433 1434 1434 1435 1435 1435
1470 1465 1465 1463 1462 1460 1458 1455 1451 1449 1446 1443 1441 1439 1437 1435 1433 1431 1430 1428 1427 1427 1426 1425 1425 1425 1425 1425 1426 1426 1427 1427 1428 1429 1429 1430 1431 1431 1432 1432 1433 1433 1433 1433
1468 1465 1463 1460 1459 1457 1454 1451 1447 1444 1443 1441 1439 1436 1435 1433 1431 1430 1429 1427 1426 1426 1425 1425 1425 1424 1424 1424 1425 1425 1425 1426 1427 1427 1428 1429 1429 1430 1431 1431 1432 1432 1431 1432
1465 1464 1463 1459 1456 1454 1450 1447 1444 1441 1439 1437 1436 1434 1432 1431 1430 1429 1427 1426 1425 1425 1425 1425 1424 1424 1424 1424 1424 1424 1425 1425 1426 1426 1427 1427 1428 1429 1429 1430 1430 1430 1430 1430
1466 1463 1461 1457 1454 1451 1448 1444 1441 1439 1437 1435 1433 1432 1431 1429 1428 1428 1427 1426 1425 1425 1424 1424 1424 1424 1424 1424 1424 1424 1424 1425 1425 1426 1426 1427 1427 1428 1428 1429 1429 1429 1428 1428
1463 1461 1457 1454 1451 1448 1445 1442 1439 1437 1435 1433 1432 1430 1429 1428 1427 1426 1426 1425 1425 1424 1424 1424 1424 1424 1424 1424 1424 1424 1425 1425 1425 1425 1426 1426 1427 1427 1427 1427 1427 1427 1427 1427
1460 1458 1455 1451 1448 1445 1442 1440 1437 1434 1432 1430 1429 1428 1428 1426 1426 1425 1425 1425 1425 1424 1424 1424 1424 1424 1424 1424 1424 1424 1425 1425 1425 1425 1425 1425 1426 1426 1426 1426 1426 1426 1426 1426
1457 1453 1451 1448 1444 1442 1440 1437 1435 1433 1431 1430 1428 1427 1426 1426 1425 1425 1425 1425 1424 1424 1424 1424 1424 1424 1424 1424 1424 1425 1425 1425 1425 1425 1425 1425 1425 1425 1425 1425 1425 1425 1425 1424
1454 1450 1447 1444 1442 1440 1438 1436 1434 1433 1431 1429 1428 1427 1426 1426 1425 1425 1425 1425 1425 1424 1425 1424 1424 1424 1424 1424 1424 1425 1425 1425 1425 1424 1424 1424 1424 1424 1424 1423 1423 1423 1423 1423
1452 1449 1446 1443 1441 1439 1436 1434 1433 1431 1430 1429 1428 1426 1426 1425 1425 1425 1425 1425 1424 1424 1424 1424 1424 1424 1424 1424 1424 1424 1424 1424 1424 1424 1423 1423 1423 1423 1423 1422 1422 1422 1421 1421
1451 1448 1445 1442 1440 1438 1436 1434 1432 1430 1429 1428 1427 1426 1426 1425 1425 1425 1425 1424 1424 1424 1424 1424 1424 1424 1424 1424 1424 1424 1424 1423 1423 1423 1423 1423 1422 1422 1422 1421 1421 1420 1420 1419
1450 1447 1444 1441 1439 1437 1435 1433 1431 1430 1428 1427 1426 1426 1425 1425 1425 1425 1424 1424 1424 1424 1424 1424 1424 1423 1423 1423 1423 1423 1423 1423 1423 1422 1422 1422 1421 1421 1420 1420 1419 1419 1418 1418
1450 1447 1444 1441 1439 1437 1435 1433 1431 1430 1429 1428 1427 1426 1426 1425 1425 1425 1424 1424 1425 1424 1424 1424 1423 1423 1423 1423 1422 1422 1422 1421 1421 1421 1420 1420 1420 1419 1419 1418 1417 1417 1416 1415
1451 1448 1445 1443 1440 1438 1436 1434 1433 1431 1430 1429 1428 1427 1426 1426 1425 1425 1425 1425 1424 1424 1424 1423 1423 1422 1422 1422 1421 1421 1420 1420 1419 1419 1419 1418 1418 1417 1417 1416 1415 1414 1414 1413
1452 1449 1446 1444 1441 1439 1438 1436 1434 1432 1430 1429 1428 1427 1426 1426 1425 1425 1424 1425 1424 1424 1423 1422 1422 1421 1421 1420 1420 1419 1418 1418 1417 1417 1416 1416 1415 1415 1414 1413 1412 1412 1411 1410
1452 1449 1447 1445 1442 1440 1438 1436 1435 1433 1431 1430 1429 1428 1427 1426 1425 1425 1424 1424 1423 1422 1421 1421 1420 1420 1419 1418 1417 1417 1416 1415 1415 1414 1414 1413 1412 1412 1411 1410 1409 1408 1407 1407
1452 1449 1447 1445 1443 1441 1439 1437 1435 1433 1432 1430 1429 1428 1427 1426 1425 1424 1423 1422 1421 1420 1419 1418 1418 1417 1416 1416 1415 1414 1413 1413 1412 1411 1411 1410 1409 1408 1407 1407 1406 1405 1404 1403
1451 1449 1447 1445 1443 1441 1439 1437 1435 1433 1432 1430 1428 1427 1426 1425 1423 1422 1421 1420 1419 1418 1417 1416 1415 1415 1414 1413 1412 1411 1410 1410 1409 1408 1407 1406 1406 1405 1404 1403 1402 1401 1400 1399
1451 1449 1447 1445 1443 1441 1439 1437 1435 1433 1431 1429 1427 1426 1425 1423 1422 1421 1419 1418 1417 1416 1415 1414 1413 1412 1411 1410 1409 1408 1407 1406 1405 1405 1404 1403 1402 1401 1400 1399 1398 1397 1396 1395